[[{"header":{"parameterUnit":"m.s-1","parameterCategory":1,"la1":30.2992,"la2":30.254,"lo1":-89.0895,"lo2":-89.0443,"dy":0.0025,"dx":0.0025,"nx":19,"ny":19,"refTime":"2026-05-15T03:00:00:Z","depth":0,"parameterNumber":2,"parameterNumberName":"U-component_of_WINDS"},"data":[0,0,0,-2.0654,-2.0653,-2.0603,-2.0603,-2.0545,-2.0545,0,0,0,0,0,0,0,0,0,0,0,-2.0674,-2.0674,-2.0654,-2.0653,-2.0603,-2.0603,-2.0545,-2.0545,0,0,0,0,0,0,0,0,0,0,0,-2.0674,-2.0674,-2.0673,-2.0653,-2.0603,-2.0603,-2.0546,-2.0581,0,0,0,0,0,0,0,0,0,0,-2.0629,-2.0651,-2.0674,-2.0673,-2.0653,-2.0603,-2.0602,-2.0582,-2.0579,-2.0572,0,-2.0567,0,-2.0555,-2.0542,-2.0541,0,0,0,-2.0649,-2.0655,-2.0637,-2.0673,-2.0652,-2.0603,-2.0624,-2.058,-2.0576,-2.0567,-2.0566,-2.0564,-2.0554,-2.0541,-2.0541,-2.0514,-2.0514,0,0,-2.0652,-2.0667,-2.064,-2.0634,-2.0643,-2.0626,-2.0623,-2.0578,-2.0578,-2.0566,-2.0562,-2.0553,-2.0541,-2.0541,-2.0514,-2.0514,0,0,0,-2.0663,-2.0669,-2.0652,-2.0637,-2.0627,-2.0625,-2.0621,-2.058,-2.0573,-2.0561,-2.0553,-2.0541,-2.054,-2.0514,-2.0514,-2.0531,0,0,0,-2.0664,-2.0675,-2.0654,-2.0662,-2.0628,-2.0603,-2.0624,-2.0576,-2.057,-2.0553,-2.0541,-2.054,-2.0514,-2.0514,-2.053,-2.0536,0,0,0,-2.0675,-2.0677,-2.0671,-2.0663,-2.0642,-2.0603,-2.0594,-2.0574,-2.0565,-2.0541,-2.0539,-2.0514,-2.0514,-2.053,-2.0535,-2.0534,0,0,0,-2.0692,-2.0686,-2.0672,-2.0662,-2.0643,-2.0615,-2.0594,-2.0572,-2.0554,-2.054,-2.0514,-2.0514,-2.053,-2.0535,-2.0533,-2.0534,-2.0536,0,0,-2.0693,-2.0687,-2.068,-2.0666,-2.0644,-2.0621,-2.0602,-2.057,-2.0554,-2.0528,-2.0527,-2.0531,-2.0535,-2.0533,-2.0545,-2.0546,0,0,0,-2.0686,-2.0681,-2.0673,-2.0656,-2.0633,-2.0614,-2.0584,-2.0572,-2.055,-2.0544,-2.0529,-2.0532,-2.053,-2.053,-2.0531,-2.0529,-2.0515,-2.0515,-2.0515,-2.0709,-2.0689,-2.0677,-2.0652,-2.0637,-2.0607,-2.0593,-2.0572,-2.0556,-2.0553,-2.0545,-2.0554,-2.0555,-2.0556,-2.0553,-2.0545,-2.0545,-2.0545,-2.0545,-2.0709,-2.0699,-2.068,-2.0661,-2.0641,-2.0624,-2.0596,-2.0586,-2.0567,-2.0558,-2.0556,-2.0547,-2.0558,-2.0555,-2.0546,-2.0546,-2.0546,-2.0546,-2.0545,-2.0721,-2.0713,-2.07,-2.0676,-2.0659,-2.0634,-2.0618,-2.0599,-2.0582,-2.058,-2.0569,-2.0569,-2.0566,-2.0576,-2.0576,-2.0576,-2.0576,-2.0576,-2.0576,-2.0739,-2.0723,-2.0712,-2.0688,-2.0676,-2.0658,-2.0629,-2.0616,-2.0598,-2.0586,-2.0585,-2.057,-2.0563,-2.0562,-2.0577,-2.0577,-2.0577,-2.0577,-2.0577,-2.0745,-2.0741,-2.0723,-2.0711,-2.0682,-2.0667,-2.0645,-2.0621,-2.0608,-2.0601,-2.0586,-2.0585,-2.0577,-2.0575,-2.0574,-2.0591,-2.0591,-2.0591,-2.0591,-2.0754,-2.0749,-2.0728,-2.071,-2.069,-2.0669,-2.065,-2.0628,-2.0605,-2.0596,-2.0591,-2.0588,-2.0587,-2.0579,-2.0578,-2.0576,-2.0593,-2.0593,-2.0593,-2.0757,-2.0749,-2.0737,-2.0714,-2.0691,-2.0671,-2.0652,-2.0632,-2.0605,-2.0593,-2.0588,-2.0588,-2.0582,-2.0582,-2.0568,-2.0566,-2.0563,0,0]},{"header":{"parameterUnit":"m.s-1","parameterCategory":1,"la1":30.2992,"la2":30.254,"lo1":-89.0895,"lo2":-89.0443,"dy":0.0025,"dx":0.0025,"nx":19,"ny":19,"refTime":"2026-05-15T03:00:00:Z","depth":0,"parameterNumber":3,"parameterNumberName":"V-component_of_WINDS"},"data":[0,0,0,4.5792,4.5792,4.5796,4.5796,4.58,4.58,0,0,0,0,0,0,0,0,0,0,0,4.579,4.579,4.5792,4.5792,4.5796,4.5796,4.58,4.58,0,0,0,0,0,0,0,0,0,0,0,4.579,4.579,4.579,4.5792,4.5796,4.5796,4.58,4.5797,0,0,0,0,0,0,0,0,0,0,4.5793,4.5791,4.579,4.579,4.5792,4.5796,4.5796,4.5797,4.5797,4.5798,0,4.5798,0,4.5799,4.58,4.58,0,0,0,4.5792,4.5791,4.5793,4.579,4.5792,4.5796,4.5794,4.5797,4.5798,4.5798,4.5798,4.5798,4.5799,4.58,4.5801,4.5802,4.5802,0,0,4.5792,4.579,4.5792,4.5793,4.5793,4.5794,4.5794,4.5798,4.5797,4.5798,4.5798,4.5799,4.5801,4.5801,4.5802,4.5802,0,0,0,4.5791,4.579,4.5792,4.5793,4.5794,4.5794,4.5795,4.5797,4.5798,4.5798,4.5799,4.5801,4.5801,4.5802,4.5802,4.5801,0,0,0,4.5791,4.5789,4.5791,4.579,4.5793,4.5795,4.5794,4.5798,4.5798,4.5799,4.5801,4.5801,4.5802,4.5802,4.5801,4.58,0,0,0,4.579,4.5789,4.579,4.579,4.5792,4.5795,4.5796,4.5798,4.5799,4.58,4.5801,4.5802,4.5802,4.5801,4.58,4.58,0,0,0,4.5788,4.5788,4.579,4.579,4.5792,4.5795,4.5796,4.5798,4.58,4.5801,4.5802,4.5802,4.5801,4.58,4.58,4.58,4.58,0,0,4.5787,4.5787,4.5788,4.579,4.5792,4.5794,4.5796,4.5798,4.5799,4.5801,4.5801,4.5801,4.58,4.58,4.58,4.5799,0,0,0,4.5787,4.5787,4.5788,4.579,4.5792,4.5794,4.5797,4.5798,4.58,4.58,4.5801,4.5801,4.5801,4.5801,4.5801,4.5801,4.5802,4.5802,4.5802,4.5783,4.5785,4.5786,4.579,4.5791,4.5795,4.5796,4.5798,4.5799,4.5799,4.58,4.5799,4.5799,4.5799,4.5799,4.58,4.58,4.58,4.58,4.5781,4.5782,4.5785,4.5788,4.579,4.5792,4.5795,4.5796,4.5798,4.5799,4.5799,4.5799,4.5799,4.5799,4.58,4.58,4.58,4.58,4.58,4.5779,4.578,4.5782,4.5785,4.5787,4.579,4.5792,4.5794,4.5796,4.5797,4.5798,4.5798,4.5798,4.5797,4.5797,4.5797,4.5797,4.5797,4.5797,4.5775,4.5777,4.5779,4.5783,4.5784,4.5787,4.5791,4.5792,4.5795,4.5796,4.5796,4.5797,4.5798,4.5798,4.5797,4.5797,4.5797,4.5797,4.5797,4.5772,4.5774,4.5776,4.5778,4.5783,4.5785,4.5788,4.5791,4.5793,4.5794,4.5796,4.5796,4.5797,4.5797,4.5797,4.5795,4.5795,4.5795,4.5795,4.577,4.5771,4.5775,4.5778,4.5781,4.5784,4.5787,4.579,4.5793,4.5795,4.5795,4.5796,4.5796,4.5796,4.5796,4.5796,4.5795,4.5795,4.5795,4.5769,4.577,4.5772,4.5776,4.578,4.5784,4.5786,4.5789,4.5793,4.5795,4.5796,4.5796,4.5796,4.5796,4.5797,4.5798,4.5798,0,0]}]]